Aérodrome :
LOGIN :

S'inscrire | Disclaimer

   EN    FR    IT 

 










Légende :    VFR   VFR Marginal   IFR   IFR Intensif   IFR Très Intensif
Visi : 
Plafond : 
>= 8 km
>= 3000ft
5 à 8 km
1000 à 3000 ft
1500m à 5 km
500 à 1000 ft
800 à 1500m
200 à 500 ft
< 800m
< 200 ft
Symboles :   Orages  Brouillard  Fortes neiges  Fortes précipitations  Vent > 20 kt
SIGMETs :   Divers  Orages  Givrage  Turbulence  Onde Orograph.  Cendres Volcan.






- Altitude de l'aérodrome : 183 ft


LIBA - Amendola Foggia

DERNIER METAR :
  • 010755Z 22005KT CAVOK 33/13 Q1009 RMK BKN SCT150 BKN200 VIS MIN 9999 WIND THR11 23005KT WIND THR29 /////KT BLU

METARs EXPIRÉS :
  • 010655Z 36004KT CAVOK 33/14 Q1009 RMK BKN SCT150 BKN200 VIS MIN 9999 WIND THR11 04002KT WIND THR29 /////KT BLU
  • 010555Z 04005KT CAVOK 31/13 Q1009 RMK BKN SCT130 BKN190 VIS MIN 9999 WIND THR11 09003KT WIND THR29 /////KT BLU

TAF TAF LIBA
Valide du 01 à 06h jusqu'au 01 à 15h UTC


010500Z 0106/0115 26010KT 9999 FEW060
BECMG 0108/0110 23015KT
TEMPO 0112/0115 23017G27KT



MET'MAP, la Météo Aéronautique d'un coup d'oeil ! - Copyright ORBIFLY Décembre 2007 - Disclaimer

ORBIFLY MET'MAP TEAM :

Programmation & Développement : Alexandra Zaïnal
Sur une idée originale de : Baudouin d'Aumeries
Assistance à la programmation : Marc-Olivier Méhu
Soutien technique & logistique : Manuel Goepfert

Contact : metmap@orbifly.com




SOURCES & CREDITS :

   NOAA